Weather History for KHLN - November, 2012

Change the Weather History Date:

Friday, November 2, 2012

  Actual Average Record
Temperature  
Mean Temperature 45 °F 39 °F  
Max Temperature 56 °F 51 °F 69 °F (1924)
Min Temperature 34 °F 27 °F -13 °F (1991)
Degree Days  
Heating Degree Days 20 26  
Month to date heating degree days 34 52  
Since 1 July heating degree days 809 960  
Cooling Degree Days 0 0  
Month to date cooling degree days 0 0  
Year to date cooling degree days 531 406  
Moisture  
Dew Point 33 °F    
Average Humidity 63    
Maximum Humidity 82    
Minimum Humidity 44    
Precipitation  
Precipitation 0.02 in 0.02 in 0.29 in (2005)
Month to date precipitation 0.02 0.03  
Year to date precipitation 7.14 10.36  
Snow  
Snow 0.00 in 0.10 in 1.00 in (1922)
Month to date snowfall 0.0 0.2  
Since 1 July snowfall T 4.2  
Since 1 September snowfall T 3.9  
Snow Depth 0.00 in    
Sea Level Pressure  
Sea Level Pressure 30.13 in    
Wind  
Wind Speed 8 mph (WSW)    
Max Wind Speed 21 mph    
Max Gust Speed 28 mph    
Visibility 10 miles    
Events Rain    
T = Trace of Precipitation, MM = Missing Value Source: NWS Daily Summary

Daily Weather History Graph

Daily Weather History Graph

Search for Another Location

Airport or City:

Trip Planner

Search our weather history database for the weather conditions in past years. The results will help you decide how hot, cold, wet, or windy it might be!

Date:

Astronomy

Nov. 02, 2012 Rise Set
Actual Time 8:12 AM MDT 6:10 PM MDT
Civil Twilight 7:40 AM MDT 6:41 PM MDT
Nautical Twilight 7:04 AM MDT 7:17 PM MDT
Astronomical Twilight 6:29 AM MDT 7:52 PM MDT
Moon 8:53 PM MDT (11/2) 11:43 AM MDT (11/2)
Length of Visible Light 11h 01m
Length of Day
9h 58m
Waning Gibbous, 87% of the Moon is Illuminated
Nov 2
Waning Gibbous
Nov 6
Last Quarter
Nov 13
New
Nov 20
First Quarter
Nov 28
Full

Hourly Weather History & Observations

Time (MDT) Temp. Windchill Dew Point Humidity Pressure Visibility Wind Dir Wind Speed Gust Speed Precip Events Conditions
12:53 AM 45.0 °F 40.6 °F 34.0 °F 65% 30.04 in 10.0 mi SW 8.1 mph - N/A   Overcast
1:53 AM 43.0 °F 39.5 °F 35.1 °F 74% 30.04 in 10.0 mi WSW 5.8 mph - N/A   Overcast
2:53 AM 45.0 °F 41.2 °F 34.0 °F 65% 30.04 in 10.0 mi West 6.9 mph - N/A   Overcast
3:53 AM 43.0 °F 36.8 °F 37.0 °F 80% 30.06 in 9.0 mi West 11.5 mph - 0.00 in Rain Light Rain
4:23 AM 42.8 °F 36.2 °F 37.4 °F 81% 30.02 in 10.0 mi SW 12.7 mph - 0.02 in   Overcast
4:30 AM 42.8 °F 35.1 °F 35.6 °F 76% 30.02 in 10.0 mi SW 16.1 mph 19.6 mph 0.02 in   Mostly Cloudy
4:53 AM 42.1 °F 36.1 °F 35.1 °F 76% 30.06 in 10.0 mi WSW 10.4 mph - 0.02 in   Partly Cloudy
5:53 AM 42.1 °F 35.7 °F 34.0 °F 73% 30.09 in 10.0 mi SW 11.5 mph - N/A   Clear
6:53 AM 39.9 °F 32.9 °F 34.0 °F 79% 30.14 in 10.0 mi WSW 11.5 mph - N/A   Clear
7:53 AM 41.0 °F 35.2 °F 33.1 °F 73% 30.15 in 10.0 mi WSW 9.2 mph - N/A   Mostly Cloudy
8:53 AM 42.1 °F 37.1 °F 33.1 °F 70% 30.17 in 10.0 mi WSW 8.1 mph - N/A   Scattered Clouds
9:53 AM 44.1 °F 38.6 °F 33.1 °F 65% 30.17 in 10.0 mi WSW 10.4 mph - N/A   Overcast
10:53 AM 48.0 °F - 32.0 °F 54% 30.17 in 10.0 mi WSW 17.3 mph 24.2 mph N/A   Scattered Clouds
11:53 AM 52.0 °F - 33.1 °F 49% 30.17 in 10.0 mi WSW 12.7 mph - N/A   Overcast
12:53 PM 53.1 °F - 33.1 °F 47% 30.16 in 10.0 mi West 17.3 mph - N/A   Partly Cloudy
1:53 PM 52.0 °F - 32.0 °F 47% 30.16 in 10.0 mi West 13.8 mph 21.9 mph N/A   Mostly Cloudy
2:53 PM 54.0 °F - 33.1 °F 45% 30.14 in 10.0 mi SW 8.1 mph - N/A   Mostly Cloudy
3:53 PM 52.0 °F - 30.9 °F 45% 30.14 in 10.0 mi WNW 8.1 mph - N/A   Mostly Cloudy
4:53 PM 52.0 °F - 30.9 °F 45% 30.15 in 10.0 mi WNW 8.1 mph - N/A   Overcast
5:53 PM 50.0 °F - 30.9 °F 48% 30.17 in 10.0 mi West 9.2 mph - N/A   Mostly Cloudy
6:53 PM 48.9 °F - 32.0 °F 52% 30.19 in 10.0 mi WSW 4.6 mph - N/A   Mostly Cloudy
7:53 PM 45.0 °F - 33.1 °F 63% 30.20 in 10.0 mi Calm Calm - N/A   Clear
8:53 PM 42.1 °F 39.2 °F 32.0 °F 67% 30.19 in 10.0 mi SW 4.6 mph - N/A   Clear
9:53 PM 41.0 °F - 33.1 °F 73% 30.19 in 10.0 mi Calm Calm - N/A   Clear
10:53 PM 39.0 °F - 30.9 °F 73% 30.19 in 10.0 mi Calm Calm - N/A   Clear
11:53 PM 36.0 °F - 30.0 °F 79% 30.20 in 10.0 mi Calm Calm - N/A   Clear